THOR ABLESTAR DEB, 177

Orbit data source: Space-Track

THOR ABLESTAR DEB, 177 is space debris in LEO originally from a launch on Thu, 29 Jun 1961 UTC launched from the Air Force Eastern Test Range (AFETR). Debris objects in space refer to the collection of defunct objects orbiting the Earth. Examples of debris include non-operational satellites, rocket bodies, and fragments generated from explosions, collisions, or faulty payload assembly.

Loading next visibility...
Identifier
177, 1961-015BB
Orbit
LEO
Country
Flag of USUS
Related business
Manufacturer
Unknown
Mission
Spacecraft
Bus & Motor
Unknown
Mass
Unknown
Launch date (UTC)
1961-06-29 (64 years ago)
Launch vehicle
Unknown
Launch site
Air Force Eastern Test Range (AFETR)
Object type
Payload
Rocket body
Debris
Shape & HBR
Unknown
Radar Cross Section
Medium (>0.1 m² and <1 m²)

Expand to show TLE details & history
Last TLE update: 22 hours ago

TLE from 22 hours ago
0 THOR ABLESTAR DEB
1 00177U 61015BB  25260.18162867  .00000291  00000-0  18224-3 0  9994
2 00177  66.6517 180.8901 0114489 280.2760  78.5438 14.14668589302548
Epoch: 2025-09-17T04:21Z
TLE epoch observation values (Epoch: 2025-09-17T04:21:32.717Z)
Latitude
0.00007°
Longitude
119.14255°
Altitude
830.017 km
Speed
7.446 km/s
True Right ascension
12h 03m 33s
True Declination
0° 00' 00"
Sunlit
Object was in daylight at epoch
Visualization orbit readout
Latitude
Unknown
Longitude
Unknown
Altitude
Unknown
Speed
Unknown
Apparent Right ascension
Unknown
Apparent Declination
Unknown
Sunlit
N/A
Visualization observer readout
Local Sidereal Time
18:44:54
Azimuth
Unknown
Elevation
Unknown
Doppler factor
Unknown
Orbital elements
Apogee altitude
924.492 km
Perigee altitude
759.171 km
Semi-major axis
7,219.969 km
Eccentricity
0.01145
Inclination
66.6517°
RAAN
180.8901°
Arg. of periapsis
280.276°
True anomaly
79.83317°
Mean anomaly
78.5438°
Eccentric anomaly
79.18813°
Mean motion
3.53786 °/min
Orbital period
101.76 mins
BSTAR
0.00018224
Loading maneuver chart data...
Computing Atmospheric mass density...

Documentation

Showing up to 5 results
|